DRU9910 UHHH-RJEB

Flight info

Callsign DRU9910
Flight time N/A
Altitude 35000
Route K0865F350 NEBES4L NEBES B150 MOGIS A969 OLDAN M131 AKSUN/N0471F350 A204 YOROI DCT SAKIN DCT
Aircraft T154/M-SDGRWY/S

Departure

Time 2026-05-04 11:47
Airport Khabarovsk Novy Airport (UHHH)

Arrival

Time N/A
Airport Monbetsu Airport (RJEB)
Time Latitude Longitude Altitude Speed Heading
2026-05-04 11:28 48.52269 135.17079 258 ft 0 kts 313°
2026-05-04 11:42 48.52271 135.17076 258 ft 0 kts 313°
2026-05-04 11:42 48.52284 135.17055 258 ft 4 kts 314°
2026-05-04 11:42 48.52295 135.17012 258 ft 3 kts 251°
2026-05-04 11:42 48.52265 135.16956 255 ft 10 kts 229°
2026-05-04 11:43 48.52205 135.16855 251 ft 15 kts 227°
2026-05-04 11:43 48.52116 135.16744 244 ft 18 kts 207°
2026-05-04 11:43 48.52003 135.16685 240 ft 17 kts 194°
2026-05-04 11:43 48.51902 135.16644 236 ft 12 kts 196°
2026-05-04 11:44 48.51829 135.16676 236 ft 11 kts 133°
2026-05-04 11:44 48.51772 135.16774 237 ft 12 kts 131°
2026-05-04 11:44 48.51712 135.16876 237 ft 13 kts 132°
2026-05-04 11:44 48.51645 135.16986 238 ft 14 kts 132°
2026-05-04 11:45 48.51575 135.17104 238 ft 15 kts 132°
2026-05-04 11:45 48.51502 135.17226 239 ft 12 kts 130°
2026-05-04 11:45 48.51503 135.17317 239 ft 8 kts 47°
2026-05-04 11:45 48.51529 135.17354 240 ft 0 kts 42°
2026-05-04 11:46 48.51530 135.17355 240 ft 0 kts 42°
2026-05-04 11:47 48.51732 135.17631 246 ft 76 kts 42°
2026-05-04 11:47 48.52302 135.18408 243 ft 141 kts 43°
2026-05-04 11:47 48.53144 135.19551 385 ft 177 kts 40°
2026-05-04 11:47 48.54068 135.20761 1028 ft 174 kts 38°
2026-05-04 11:48 48.54921 135.21954 1660 ft 176 kts 50°
2026-05-04 11:48 48.55470 135.23749 1880 ft 203 kts 80°
2026-05-04 11:48 48.55309 135.25996 2043 ft 234 kts 108°
2026-05-04 11:48 48.54745 135.28404 2546 ft 248 kts 110°
2026-05-04 11:49 48.54111 135.30826 3240 ft 254 kts 111°
2026-05-04 11:49 48.53527 135.33348 3960 ft 258 kts 105°
2026-05-04 11:49 48.53093 135.35967 4714 ft 261 kts 101°
2026-05-04 11:49 48.52729 135.38631 5458 ft 264 kts 100°
2026-05-04 11:50 48.52378 135.41333 6203 ft 266 kts 99°
2026-05-04 11:50 48.52026 135.44109 6856 ft 274 kts 99°
2026-05-04 11:50 48.51671 135.46942 7513 ft 280 kts 99°
2026-05-04 11:50 48.51309 135.49832 8231 ft 284 kts 98°
2026-05-04 11:51 48.50944 135.52743 8979 ft 286 kts 98°
2026-05-04 11:51 48.50574 135.55701 9734 ft 289 kts 98°
2026-05-04 11:51 48.50205 135.58638 10428 ft 293 kts 97°
2026-05-04 11:51 48.49824 135.61678 11079 ft 300 kts 97°
2026-05-04 11:52 48.49438 135.64766 11752 ft 305 kts 97°
2026-05-04 11:52 48.49035 135.67955 12357 ft 313 kts 98°
2026-05-04 11:52 48.48626 135.71188 12969 ft 319 kts 98°
2026-05-04 11:52 48.48208 135.74484 13627 ft 324 kts 98°
2026-05-04 11:53 48.47784 135.77814 14238 ft 330 kts 98°
2026-05-04 11:53 48.47350 135.81215 14872 ft 335 kts 98°
2026-05-04 11:53 48.46903 135.84706 15548 ft 339 kts 98°
2026-05-04 11:53 48.46457 135.88184 16218 ft 342 kts 98°
2026-05-04 11:55 48.43155 136.13654 20348 ft 369 kts 98°
2026-05-04 11:55 48.42659 136.17439 20865 ft 374 kts 98°
2026-05-04 11:56 48.42150 136.21323 21366 ft 379 kts 98°
2026-05-04 11:56 48.41633 136.25226 21860 ft 384 kts 99°
2026-05-04 11:56 48.40963 136.29077 22378 ft 389 kts 105°
2026-05-04 11:56 48.40128 136.32988 22874 ft 394 kts 105°
2026-05-04 11:57 48.39296 136.36928 23393 ft 397 kts 105°
2026-05-04 11:57 48.38481 136.40886 23850 ft 401 kts 104°
2026-05-04 11:57 48.37661 136.44885 24333 ft 405 kts 104°
2026-05-04 11:57 48.36829 136.48944 24774 ft 409 kts 104°
2026-05-04 11:58 48.35980 136.53072 25231 ft 412 kts 104°
2026-05-04 11:58 48.35129 136.57202 25695 ft 415 kts 104°
2026-05-04 11:58 48.34282 136.61313 26159 ft 417 kts 104°
2026-05-04 11:58 48.33422 136.65469 26622 ft 419 kts 105°
2026-05-04 11:59 48.32563 136.69629 26973 ft 424 kts 105°
2026-05-04 11:59 48.31680 136.73898 27343 ft 428 kts 105°
2026-05-04 11:59 48.30795 136.78194 27730 ft 431 kts 104°
2026-05-04 11:59 48.30083 136.82548 28117 ft 433 kts 99°
2026-05-04 12:00 48.29495 136.86920 28473 ft 436 kts 99°
2026-05-04 12:00 48.28865 136.91425 28831 ft 440 kts 100°
2026-05-04 12:00 48.28211 136.95908 29197 ft 443 kts 100°
2026-05-04 12:00 48.27548 137.00411 29554 ft 445 kts 100°
2026-05-04 12:01 48.26878 137.04945 29915 ft 448 kts 100°
2026-05-04 12:01 48.26208 137.09456 30266 ft 450 kts 100°
2026-05-04 12:02 48.22103 137.37108 31857 ft 459 kts 102°
2026-05-04 12:03 48.21390 137.41704 32072 ft 460 kts 102°
2026-05-04 12:03 48.20680 137.46350 32251 ft 462 kts 102°
2026-05-04 12:03 48.19957 137.51092 32398 ft 465 kts 102°
2026-05-04 12:03 48.19244 137.55765 32531 ft 468 kts 102°
2026-05-04 12:04 48.18512 137.60559 32677 ft 471 kts 102°
2026-05-04 12:04 48.17780 137.65338 32827 ft 473 kts 103°
2026-05-04 12:04 48.16303 137.74976 32997 ft 481 kts 103°
2026-05-04 12:05 48.15547 137.79877 33106 ft 483 kts 103°
2026-05-04 12:05 48.14792 137.84753 33226 ft 485 kts 103°
2026-05-04 12:05 48.14028 137.89665 33352 ft 487 kts 103°
2026-05-04 12:05 48.13269 137.94539 33482 ft 488 kts 103°
2026-05-04 12:06 48.12500 137.99460 33614 ft 489 kts 103°
2026-05-04 12:06 48.11728 138.04379 33747 ft 490 kts 103°
2026-05-04 12:06 48.10953 138.09308 33893 ft 490 kts 104°
2026-05-04 12:06 48.10164 138.14310 34042 ft 491 kts 104°
2026-05-04 12:07 48.09386 138.19225 34185 ft 491 kts 104°
2026-05-04 12:07 48.08597 138.24194 34305 ft 492 kts 104°
2026-05-04 12:07 48.07805 138.29169 34424 ft 493 kts 104°
2026-05-04 12:07 48.06989 138.34113 34541 ft 492 kts 108°
2026-05-04 12:08 48.05759 138.38806 34657 ft 491 kts 117°
2026-05-04 12:08 48.04250 138.43402 34795 ft 490 kts 117°
2026-05-04 12:08 48.02787 138.47925 34920 ft 490 kts 116°
2026-05-04 12:08 48.01313 138.52562 34960 ft 493 kts 116°
2026-05-04 12:09 47.98391 138.61754 35004 ft 497 kts 116°
2026-05-04 12:09 47.95415 138.71098 34993 ft 502 kts 117°
2026-05-04 12:10 47.92432 138.80443 35008 ft 499 kts 117°
2026-05-04 12:10 47.90961 138.85031 34988 ft 487 kts 117°
2026-05-04 12:10 47.89531 138.89482 34969 ft 476 kts 117°
2026-05-04 12:11 47.86717 138.98108 34951 ft 455 kts 118°
2026-05-04 12:11 47.84022 139.06406 34955 ft 449 kts 118°
2026-05-04 12:12 47.82628 139.10690 35021 ft 464 kts 118°